Phoenix Deer Valley, AZ

10:52 PM MST on November 17, 2019 (GMT -0700)
Phoenix-Deer Valley Municipal

Weather History for KDVT - July, 2019

Change the Weather History Date:

Thursday, July 25, 2019

  Actual Average Record
Temperature  
Mean Temperature 96 °F -  
Max Temperature 104 °F 101 °F 113 °F (2018)
Min Temperature 89 °F 81 °F 75 °F (2006)
Cooling Degree Days 32    
Growing Degree Days 46 (Base 50)    
Moisture  
Dew Point 62 °F    
Average Humidity 31    
Maximum Humidity 48    
Minimum Humidity 24    
Precipitation  
Precipitation 0.00 in - - ()
Sea Level Pressure  
Sea Level Pressure 29.86 in    
Wind  
Wind Speed 7 mph (WSW)    
Max Wind Speed 15 mph    
Max Gust Speed 25 mph    
Visibility 10 miles    
Events      
Averages and records for this station are not official NWS values.
T = Trace of Precipitation, MM = Missing Value Source: NWS Daily Summary

Daily Weather History Graph

Daily Weather History Graph

Search for Another Location

Airport or City:

Astronomy

Jul. 25, 2019 Rise Set
Actual Time 5:35 AM MST 7:33 PM MST
Civil Twilight 5:07 AM MST 8:01 PM MST
Nautical Twilight 4:33 AM MST 8:35 PM MST
Astronomical Twilight 3:57 AM MST 9:11 PM MST
Moon 12:12 AM MST (7/25) 1:26 PM MST (7/25)
Length of Visible Light 14h 53m
Length of Day
13h 58m
Last Quarter, 43% of the Moon is Illuminated
Jul 25
Last Quarter
Jul 31
New
Aug 7
First Quarter
Aug 15
Full
Aug 23
Last Quarter

Hourly Weather History & Observations

Time (MST) Temp. Heat Index Dew Point Humidity Pressure Visibility Wind Dir Wind Speed Gust Speed Precip Events Conditions
12:53 AM 90.0 °F 91.3 °F 64.0 °F 42% 29.83 in 10.0 mi ENE 3.5 mph - N/A   Clear
1:53 AM - - - N/A% 29.90 in - North - - N/A   Unknown
2:53 AM - - - N/A% 29.90 in - North - - N/A   Unknown
3:53 AM - - - N/A% 29.91 in - North - - N/A   Unknown
4:53 AM - - - N/A% 29.93 in - North - - N/A   Unknown
5:53 AM - - - N/A% 29.95 in - North - - N/A   Unknown
6:53 AM - - - N/A% 29.97 in - North - - N/A   Unknown
7:53 AM 89.1 °F 92.1 °F 66.9 °F 48% 29.90 in 10.0 mi South 5.8 mph - N/A   Unknown
8:53 AM 91.0 °F 93.8 °F 66.0 °F 44% 29.89 in 10.0 mi South 5.8 mph - N/A   Clear
9:53 AM 93.9 °F 96.1 °F 64.9 °F 38% 29.90 in 10.0 mi WSW 6.9 mph - N/A   Clear
10:53 AM 96.1 °F 97.3 °F 63.0 °F 33% 29.89 in 10.0 mi SSW 6.9 mph - N/A   Clear
11:53 AM 98.1 °F 99.1 °F 62.1 °F 30% 29.87 in 10.0 mi North - - N/A   Clear
12:53 PM 100.0 °F 101.8 °F 62.1 °F 29% 29.84 in 10.0 mi West 8.1 mph - N/A   Clear
1:53 PM 100.9 °F 101.6 °F 60.1 °F 26% 29.90 in 10.0 mi Variable 5.8 mph - N/A   Clear
2:53 PM 104.0 °F 105.3 °F 60.1 °F 24% 29.88 in 10.0 mi WSW 11.5 mph 17.3 mph N/A   Clear
3:53 PM 102.9 °F 103.6 °F 60.1 °F 24% 29.85 in 10.0 mi West 9.2 mph - N/A   Clear
4:53 PM 102.9 °F 104.2 °F 61.0 °F 25% 29.82 in 10.0 mi West 6.9 mph 18.4 mph N/A   Clear
5:53 PM 104.0 °F 105.3 °F 60.1 °F 24% 29.82 in 10.0 mi SW 13.8 mph 25.3 mph N/A   Clear
6:53 PM 102.9 °F 103.6 °F 60.1 °F 24% 29.83 in 10.0 mi SW 15.0 mph - N/A   Clear
7:53 PM 100.9 °F 101.0 °F 59.0 °F 25% 29.76 in 10.0 mi WSW 11.5 mph - N/A   Clear
8:53 PM 100.0 °F 100.7 °F 60.1 °F 27% 29.78 in 10.0 mi WSW 12.7 mph - N/A   Clear
9:53 PM 99.0 °F 99.5 °F 60.1 °F 28% 29.80 in 10.0 mi SW 9.2 mph - N/A   Clear
10:53 PM 98.1 °F 98.6 °F 61.0 °F 29% 29.80 in 10.0 mi WSW 9.2 mph - N/A   Clear
11:53 PM 96.1 °F 96.4 °F 61.0 °F 31% 29.80 in 10.0 mi West 8.1 mph - N/A   Clear